Time,TemperatureF,DewpointF,PressureIn,WindDirection,WindDirectionDegrees,WindSpeedMPH,WindSpeedGustMPH,Humidity,HourlyPrecipIn,Conditions,Clouds,dailyrainin,SoftwareType,DateUTC
2013-02-26 00:32:00,24.0,-99.9,30.23,ENE,60,-999.0,-999.0,-999,-99.99,,,-99.99,,2013-02-26 05:32:00,
2013-02-26 00:43:00,24.0,-99.9,30.23,ENE,60,-999.0,-999.0,-999,-99.99,,,-99.99,,2013-02-26 05:43:00,
2013-02-26 00:52:00,24.0,-99.9,30.24,ENE,60,-999.0,-999.0,-999,-99.99,,,-99.99,,2013-02-26 05:52:00,
2013-02-26 01:22:00,24.0,-99.9,30.24,ENE,60,-999.0,-999.0,-999,-99.99,,,-99.99,,2013-02-26 06:22:00,
2013-02-26 01:32:00,24.0,-99.9,30.24,ENE,60,-999.0,-999.0,-999,-99.99,,,-99.99,,2013-02-26 06:32:00,
2013-02-26 01:42:00,24.0,-99.9,30.24,ENE,60,-999.0,-999.0,-999,-99.99,,,-99.99,,2013-02-26 06:42:00,
2013-02-26 01:52:00,24.0,-99.9,30.27,ENE,60,-999.0,-999.0,-999,-99.99,,,-99.99,,2013-02-26 06:52:00,
2013-02-26 02:22:00,24.0,-99.9,30.27,ENE,60,-999.0,-999.0,-999,-99.99,,,-99.99,,2013-02-26 07:22:00,
2013-02-26 02:32:00,24.0,-99.9,30.27,ENE,60,-999.0,-999.0,-999,-99.99,,,-99.99,,2013-02-26 07:32:00,
2013-02-26 02:42:00,24.0,-99.9,30.27,ENE,60,-999.0,-999.0,-999,-99.99,,,-99.99,,2013-02-26 07:42:00,
2013-02-26 02:52:00,23.0,-99.9,30.26,ENE,60,-999.0,-999.0,-999,-99.99,,,-99.99,,2013-02-26 07:52:00,
2013-02-26 03:22:00,23.0,-99.9,30.26,ENE,60,-999.0,-999.0,-999,-99.99,,,-99.99,,2013-02-26 08:22:00,
2013-02-26 03:32:00,23.0,-99.9,30.26,ENE,60,-999.0,-999.0,-999,-99.99,,,-99.99,,2013-02-26 08:32:00,
2013-02-26 03:42:00,23.0,-99.9,30.26,ENE,60,-999.0,-999.0,-999,-99.99,,,-99.99,,2013-02-26 08:42:00,
2013-02-26 03:52:00,22.0,-99.9,30.25,ENE,60,-999.0,-999.0,-999,-99.99,,,-99.99,,2013-02-26 08:52:00,
2013-02-26 04:21:00,22.0,-99.9,30.25,ENE,60,-999.0,-999.0,-999,-99.99,,,-99.99,,2013-02-26 09:21:00,
2013-02-26 04:32:00,22.0,-99.9,30.25,ENE,60,-999.0,-999.0,-999,-99.99,,,-99.99,,2013-02-26 09:32:00,
2013-02-26 04:43:00,22.0,-99.9,30.25,ENE,60,-999.0,-999.0,-999,-99.99,,,-99.99,,2013-02-26 09:43:00,
2013-02-26 04:52:00,22.0,-99.9,30.26,ENE,60,-999.0,-999.0,-999,-99.99,,,-99.99,,2013-02-26 09:52:00,
2013-02-26 05:21:00,22.0,-99.9,30.26,ENE,60,-999.0,-999.0,-999,-99.99,,,-99.99,,2013-02-26 10:21:00,
2013-02-26 05:32:00,22.0,-99.9,30.26,ENE,60,-999.0,-999.0,-999,-99.99,,,-99.99,,2013-02-26 10:32:00,
2013-02-26 05:42:00,22.0,-99.9,30.26,ENE,60,-999.0,-999.0,-999,-99.99,,,-99.99,,2013-02-26 10:42:00,
2013-02-26 05:52:00,22.0,-99.9,30.24,ENE,60,-999.0,-999.0,-999,-99.99,,,-99.99,,2013-02-26 10:52:00,
2013-02-26 06:22:00,22.0,-99.9,30.24,ENE,60,-999.0,-999.0,-999,-99.99,,,-99.99,,2013-02-26 11:22:00,
2013-02-26 06:32:00,22.0,-99.9,30.24,ENE,60,-999.0,-999.0,-999,-99.99,,,-99.99,,2013-02-26 11:32:00,
2013-02-26 06:42:00,22.0,-99.9,30.24,ENE,60,-999.0,-999.0,-999,-99.99,,,-99.99,,2013-02-26 11:42:00,
2013-02-26 06:52:00,22.0,-99.9,30.25,ENE,60,-999.0,-999.0,-999,-99.99,,,-99.99,,2013-02-26 11:52:00,
2013-02-26 07:22:00,22.0,-99.9,30.25,ENE,60,-999.0,-999.0,-999,-99.99,,,-99.99,,2013-02-26 12:22:00,
2013-02-26 07:33:00,22.0,-99.9,30.25,ENE,60,-999.0,-999.0,-999,-99.99,,,-99.99,,2013-02-26 12:33:00,
2013-02-26 07:42:00,22.0,-99.9,30.25,ENE,60,-999.0,-999.0,-999,-99.99,,,-99.99,,2013-02-26 12:42:00,
2013-02-26 07:52:00,26.0,-99.9,30.28,ENE,60,-999.0,-999.0,-999,-99.99,,,-99.99,,2013-02-26 12:52:00,
2013-02-26 08:22:00,26.0,-99.9,30.28,ENE,60,-999.0,-999.0,-999,-99.99,,,-99.99,,2013-02-26 13:22:00,
2013-02-26 08:32:00,26.0,-99.9,30.28,ENE,60,-999.0,-999.0,-999,-99.99,,,-99.99,,2013-02-26 13:32:00,
2013-02-26 08:42:00,26.0,-99.9,30.28,ENE,60,-999.0,-999.0,-999,-99.99,,,-99.99,,2013-02-26 13:42:00,
2013-02-26 08:52:00,31.0,-99.9,30.29,ENE,60,-999.0,-999.0,-999,-99.99,,,-99.99,,2013-02-26 13:52:00,
2013-02-26 09:22:00,31.0,-99.9,30.29,ENE,60,-999.0,-999.0,-999,-99.99,,,-99.99,,2013-02-26 14:22:00,
2013-02-26 09:32:00,31.0,-99.9,30.29,ENE,60,-999.0,-999.0,-999,-99.99,,,-99.99,,2013-02-26 14:32:00,
2013-02-26 09:42:00,31.0,-99.9,30.29,ENE,60,-999.0,-999.0,-999,-99.99,,,-99.99,,2013-02-26 14:42:00,
2013-02-26 09:52:00,36.0,-99.9,30.27,North,352,4.0,6.0,-999,-99.99,,,-99.99,,2013-02-26 14:52:00,
2013-02-26 10:22:00,36.0,-99.9,30.27,North,352,4.0,6.0,-999,-99.99,,,-99.99,,2013-02-26 15:22:00,
2013-02-26 10:32:00,36.0,-99.9,30.27,North,352,4.0,6.0,-999,-99.99,,,-99.99,,2013-02-26 15:32:00,
2013-02-26 10:42:00,36.0,-99.9,30.27,North,352,4.0,6.0,-999,-99.99,,,-99.99,,2013-02-26 15:42:00,
2013-02-26 10:52:00,40.0,-99.9,30.25,North,355,3.0,7.0,-999,-99.99,,,-99.99,,2013-02-26 15:52:00,
2013-02-26 11:22:00,40.0,-99.9,30.25,North,355,3.0,7.0,-999,-99.99,,,-99.99,,2013-02-26 16:22:00,
2013-02-26 11:32:00,40.0,-99.9,30.25,North,355,3.0,7.0,-999,-99.99,,,-99.99,,2013-02-26 16:32:00,
2013-02-26 11:42:00,40.0,-99.9,30.25,North,355,3.0,7.0,-999,-99.99,,,-99.99,,2013-02-26 16:42:00,
2013-02-26 11:52:00,42.0,-99.9,30.24,SSE,159,8.0,10.0,-999,-99.99,,,-99.99,,2013-02-26 16:52:00,
2013-02-26 12:22:00,42.0,-99.9,30.24,SSE,159,8.0,10.0,-999,-99.99,,,-99.99,,2013-02-26 17:22:00,
2013-02-26 12:32:00,42.0,-99.9,30.24,SSE,159,8.0,10.0,-999,-99.99,,,-99.99,,2013-02-26 17:32:00,
2013-02-26 12:42:00,42.0,-99.9,30.24,SSE,159,8.0,10.0,-999,-99.99,,,-99.99,,2013-02-26 17:42:00,
2013-02-26 12:52:00,43.0,-99.9,30.22,SW,222,6.0,11.0,-999,-99.99,,,-99.99,,2013-02-26 17:52:00,
2013-02-26 13:22:00,43.0,-99.9,30.22,SW,222,6.0,11.0,-999,-99.99,,,-99.99,,2013-02-26 18:22:00,
2013-02-26 13:32:00,43.0,-99.9,30.22,SW,222,6.0,11.0,-999,-99.99,,,-99.99,,2013-02-26 18:32:00,
2013-02-26 13:42:00,43.0,-99.9,30.22,SW,222,6.0,11.0,-999,-99.99,,,-99.99,,2013-02-26 18:42:00,
2013-02-26 13:52:00,42.0,-99.9,30.19,SSE,163,-999.0,11.0,-999,-99.99,,,-99.99,,2013-02-26 18:52:00,
2013-02-26 14:22:00,42.0,-99.9,30.19,SSE,163,-999.0,11.0,-999,-99.99,,,-99.99,,2013-02-26 19:22:00,
2013-02-26 14:32:00,42.0,-99.9,30.19,SSE,163,-999.0,11.0,-999,-99.99,,,-99.99,,2013-02-26 19:32:00,
2013-02-26 14:42:00,42.0,-99.9,30.19,SSE,163,-999.0,11.0,-999,-99.99,,,-99.99,,2013-02-26 19:42:00,
2013-02-26 14:52:00,41.0,-99.9,30.17,SSW,193,4.0,14.0,-999,-99.99,,,-99.99,,2013-02-26 19:52:00,
2013-02-26 15:22:00,41.0,-99.9,30.17,SSW,193,4.0,14.0,-999,-99.99,,,-99.99,,2013-02-26 20:22:00,
2013-02-26 15:32:00,41.0,-99.9,30.17,SSW,193,4.0,14.0,-999,-99.99,,,-99.99,,2013-02-26 20:32:00,
2013-02-26 15:42:00,41.0,-99.9,30.17,SSW,193,4.0,14.0,-999,-99.99,,,-99.99,,2013-02-26 20:42:00,
2013-02-26 16:21:00,41.0,-99.9,30.16,SE,143,8.0,13.0,-999,-99.99,,,-99.99,,2013-02-26 21:21:00,
2013-02-26 16:31:00,41.0,-99.9,30.16,SE,143,8.0,13.0,-999,-99.99,,,-99.99,,2013-02-26 21:31:00,
2013-02-26 16:41:00,41.0,-99.9,30.16,SE,143,8.0,13.0,-999,-99.99,,,-99.99,,2013-02-26 21:41:00,
2013-02-26 16:51:00,41.0,-99.9,30.16,SE,143,8.0,13.0,-999,-99.99,,,-99.99,,2013-02-26 21:51:00,
2013-02-26 16:52:00,40.0,-99.9,30.12,ESE,110,6.0,9.0,-999,-99.99,,,-99.99,,2013-02-26 21:52:00,
2013-02-26 17:21:00,40.0,-99.9,30.12,ESE,110,6.0,9.0,-999,-99.99,,,-99.99,,2013-02-26 22:21:00,
2013-02-26 17:32:00,40.0,-99.9,30.12,ESE,110,6.0,9.0,-999,-99.99,,,-99.99,,2013-02-26 22:32:00,
2013-02-26 17:42:00,40.0,-99.9,30.12,ESE,110,6.0,9.0,-999,-99.99,,,-99.99,,2013-02-26 22:42:00,
2013-02-26 17:52:00,38.0,-99.9,30.11,SW,225,5.0,15.0,-999,-99.99,,,-99.99,,2013-02-26 22:52:00,
2013-02-26 18:21:00,38.0,-99.9,30.11,SW,225,5.0,15.0,-999,-99.99,,,-99.99,,2013-02-26 23:21:00,
2013-02-26 18:32:00,38.0,-99.9,30.11,SW,225,5.0,15.0,-999,-99.99,,,-99.99,,2013-02-26 23:32:00,
2013-02-26 18:42:00,38.0,-99.9,30.11,SW,225,5.0,15.0,-999,-99.99,,,-99.99,,2013-02-26 23:42:00,
2013-02-26 18:52:00,37.0,-99.9,30.09,NE,39,3.0,15.0,-999,-99.99,,,-99.99,,2013-02-26 23:52:00,
2013-02-26 19:32:00,37.0,-99.9,30.09,NE,39,3.0,15.0,-999,-99.99,,,-99.99,,2013-02-27 00:32:00,
2013-02-26 19:42:00,37.0,-99.9,30.09,NE,39,3.0,15.0,-999,-99.99,,,-99.99,,2013-02-27 00:42:00,
2013-02-26 19:52:00,35.0,-99.9,30.04,North,-999,8.0,8.0,-999,-99.99,,,-99.99,,2013-02-27 00:52:00,
2013-02-26 20:32:00,35.0,-99.9,30.04,North,-999,8.0,8.0,-999,-99.99,,,-99.99,,2013-02-27 01:32:00,
2013-02-26 20:42:00,35.0,-99.9,30.04,North,-999,8.0,8.0,-999,-99.99,,,-99.99,,2013-02-27 01:42:00,
2013-02-26 20:52:00,35.0,-99.9,30.00,North,4,3.0,14.0,-999,-99.99,,,-99.99,,2013-02-27 01:52:00,
2013-02-26 21:32:00,35.0,-99.9,30.00,North,4,3.0,14.0,-999,-99.99,,,-99.99,,2013-02-27 02:32:00,
2013-02-26 21:42:00,35.0,-99.9,30.00,North,4,3.0,14.0,-999,-99.99,,,-99.99,,2013-02-27 02:42:00,
2013-02-26 21:52:00,35.0,-99.9,29.99,SSE,156,-999.0,14.0,-999,-99.99,,,-99.99,,2013-02-27 02:52:00,
2013-02-26 22:22:00,35.0,-99.9,29.99,SSE,156,-999.0,14.0,-999,-99.99,,,-99.99,,2013-02-27 03:22:00,
2013-02-26 22:32:00,35.0,-99.9,29.99,SSE,156,-999.0,14.0,-999,-99.99,,,-99.99,,2013-02-27 03:32:00,
2013-02-26 22:42:00,35.0,-99.9,29.99,SSE,156,-999.0,14.0,-999,-99.99,,,-99.99,,2013-02-27 03:42:00,
2013-02-26 22:52:00,34.0,-99.9,29.92,NNW,336,9.0,13.0,-999,-99.99,,,-99.99,,2013-02-27 03:52:00,
2013-02-26 23:22:00,34.0,-99.9,29.92,NNW,336,9.0,13.0,-999,-99.99,,,-99.99,,2013-02-27 04:22:00,
2013-02-26 23:32:00,34.0,-99.9,29.92,NNW,336,9.0,13.0,-999,-99.99,,,-99.99,,2013-02-27 04:32:00,
2013-02-26 23:42:00,34.0,-99.9,29.92,NNW,336,9.0,13.0,-999,-99.99,,,-99.99,,2013-02-27 04:42:00,
2013-02-26 23:52:00,34.0,-99.9,29.88,NNE,21,-999.0,8.0,-999,-99.99,,,-99.99,,2013-02-27 04:52:00,